This demonstration page uses our WeatherBlox Daily Observations layout. Learn more.

Left ArrowRight Arrow

39.92423, -83.80882

Hourly Observations for July 27, 2021

Temp ( °F °C ) Dew Point ( °F °C ) Humidity (%) Winds ( mph kmh ) Pressure ( in mb ) Visibility ( mi km ) Precip ( " mm )
12:56 am 00:56 Clear 64 17.8 64 17.8 100 100 N N/A 30.04 1017 10 16 N/A
1:56 am 01:56 Clear 64 18 N/A N/A N N/A 30.04 1017 10 16 N/A
2:56 am 02:56 Clear 63 17 N/A N/A N N/A 30.04 1017 9 14 N/A
3:56 am 03:56 Clear 61 16 N/A N/A E 3 6 30.05 1018 9 14 N/A
4:56 am 04:56 Clear 61 16 N/A N/A N N/A 30.05 1018 8 13 N/A
5:56 am 05:56 Clear with Mist and Fog 61 16 N/A N/A N N/A 30.06 1018 3 5 N/A
6:09 am 06:09 Clear with Mist and Fog 61 16 N/A N/A N N/A 30.06 1018 3 4 N/A
6:18 am 06:18 Clear 61 16 N/A N/A N N/A 30.06 1018 7 11 N/A
6:56 am 06:56 Sunny 61 16 N/A N/A undefined N/A 30.05 1018 8 13 N/A
7:56 am 07:56 Sunny 66 19 N/A N/A N N/A 30.06 1018 9 14 N/A
8:56 am 08:56 Sunny 73 22.8 67 19.4 81 81 N N/A 30.08 1019 10 16 N/A
9:56 am 09:56 Sunny 79 26.1 69 20.6 72 72 N N/A 30.09 1019 10 16 N/A
10:56 am 10:56 Sunny 80 26.7 66 18.9 62 62 N N/A 30.08 1019 10 16 N/A
11:56 am 11:56 Sunny 84 28.9 64 17.8 51 51 VRB 3 6 30.09 1019 10 16 N/A
12:56 pm 12:56 Sunny 84 28.9 64 17.8 51 51 N N/A 30.08 1019 10 16 N/A
1:56 pm 13:56 Sunny 83 28.3 64 17.8 53 53 N N/A 30.06 1018 10 16 N/A
2:56 pm 14:56 Sunny 85 29.4 63 17.2 48 48 N 5 7 30.07 1018 10 16 N/A
3:56 pm 15:56 Sunny 85 29.4 65 18.3 51 51 N N/A 30.06 1018 10 16 N/A
4:56 pm 16:56 Sunny 84 28.9 67 19.4 57 57 N N/A 30.04 1017 10 16 N/A
5:56 pm 17:56 Sunny 85 29.4 66 18.9 53 53 N N/A 30.03 1017 10 16 N/A
6:56 pm 18:56 Sunny 83 28.3 68 20 61 61 N 5 7 30.03 1017 10 16 N/A
7:56 pm 19:56 Sunny 81 27.2 69 20.6 67 67 N N/A 30.02 1017 10 16 N/A
8:56 pm 20:56 Clear 76 24.4 70 21.1 82 82 N N/A 30.02 1017 10 16 N/A
9:56 pm 21:56 Clear 72 22.2 71 21.7 97 97 N N/A 30.04 1017 10 16 N/A
10:56 pm 22:56 Clear 70 21 N/A N/A N N/A 30.05 1018 10 16 N/A
11:56 pm 23:56 Clear 68 20 N/A N/A N N/A 30.06 1018 10 16 N/A

Powered by AerisWeather